Location: Lynch Observatory
(39.9540°N, 75.1861°W)
Time: 17:44:59
(UTC-04:00)

Hubble Space Telescope - Visible Passes

Search period start: 20 October 2017 00:00
Search period end: 30 October 2017 00:00
Orbit: 537 x 541 km, 28.5° (Epoch: 20 October)

Date Brightness Start Highest point End Pass type
(mag) Time Alt. Az. Time Alt. Az. Time Alt. Az.
21 Oct 3.3 20:18:59 10° SSW 20:19:41 12° SSW 20:19:41 12° SSW visible
22 Oct 3.1 20:08:28 10° SSW 20:10:06 14° S 20:10:06 14° S visible
23 Oct 2.9 19:58:02 10° SW 20:00:30 16° S 20:00:30 16° S visible
24 Oct 2.8 19:47:40 10° SW 19:50:17 16° S 19:50:53 16° SSE visible
25 Oct 2.8 19:37:20 10° SW 19:39:59 17° S 19:41:17 15° SSE visible
26 Oct 3.0 19:27:04 10° SW 19:29:41 16° S 19:31:41 12° SSE visible
27 Oct 3.1 19:16:53 10° SW 19:19:23 16° S 19:21:53 10° SSE visible
28 Oct 3.2 19:06:44 10° SW 19:09:04 15° S 19:11:24 10° SSE visible
29 Oct 3.3 18:56:40 10° SW 18:58:45 14° S 19:00:50 10° SSE visible
